Wind_Speed
5 5 5 5 6 6 6 5 4 4 4 4 4 3 2 2 2 3 5 6 6 5 5 5 6 7 8 8 9 11 11 10 9 8 8 9 9 9 9 10 11 12 13 15 15 14 13 11 9 9 10 11 11 10 9 8 7 7 7 7 6 6 7 7 7 7 7 7 7 7 7 7 7 8 8 8 9 9 8 7 6 6 6 7 7
5 5 5 6 6 7 7 7 6 5 5 4 4 4 4 3 4 4 5 6 7 7 8 8 8 7 8 8 9 10 10 10 10 9 9 9 9 9 9 10 10 11 12 13 14 15 14 13 11 10 10 10 11 11 11 11 11 10 8 7 7 8 8 8 8 9 9 8 8 8 8 8 8 8 9 9 9 9 9 9 8 7 7 7 7
5 5 6 6 7 7 8 7 7 7 6 6 6 6 6 6 6 6 6 7 7 8 9 9 9 8 8 8 8 9 10 10 10 9 9 10 10 10 11 11 10 10 11 12 13 14 14 14 13 11 11 11 11 11 11 12 12 12 11 10 8 8 8 9 10 10 10 10 10 10 10 9 9 10 10 9 9 10 10 10 10 9 8 8 8
5 5 6 6 7 7 7 7 7 8 8 8 8 8 8 8 8 8 8 8 8 8 9 9 9 8 8 7 7 9 10 10 10 9 9 10 11 11 11 11 11 10 10 11 12 12 14 14 14 13 12 12 12 11 11 11 11 11 12 13 12 10 9 9 10 11 12 12 12 12 12 11 10 11 11 11 10 10 11 11 11 11 10 10 9
6 6 6 6 6 6 6 7 8 8 9 9 9 10 10 10 10 10 10 10 9 8 9 9 8 7 7 7 7 7 9 10 10 9 9 10 11 11 11 11 12 11 11 11 12 12 12 13 14 13 13 13 13 13 12 12 11 11 12 13 13 13 12 11 11 12 13 13 13 13 13 13 12 12 12 13 12 12 12 12 12 12 12 11 11
7 7 7 7 6 5 5 6 8 9 10 10 11 11 12 11 11 12 12 12 11 10 10 10 9 9 8 8 7 7 8 10 10 10 10 10 11 11 12 12 12 12 12 12 12 12 12 13 13 14 13 13 13 13 13 13 12 12 12 12 13 14 14 14 13 13 13 14 14 15 15 15 14 14 14 14 14 14 13 13 13 13 13 13 13
10 9 9 9 7 6 6 6 7 9 10 11 12 12 13 13 13 14 13 13 13 13 13 13 12 11 10 10 9 9 9 10 11 11 11 11 11 11 12 12 12 12 13 13 14 14 14 14 13 13 14 13 13 13 13 13 13 13 12 12 13 14 15 16 15 15 15 15 14 15 15 16 16 15 15 16 16 15 15 15 15 15 14 14 14
13 13 12 12 10 8 7 7 7 8 9 10 11 12 13 14 15 15 15 15 15 15 15 15 15 14 13 12 12 11 11 11 12 12 13 12 12 12 12 12 12 12 13 14 15 15 16 16 15 14 14 14 14 14 14 14 14 14 14 14 14 14 15 16 17 16 16 16 15 15 15 15 16 16 16 16 17 17 16 16 16 16 16 16 16
16 16 15 15 13 11 10 9 9 9 10 10 10 11 13 14 15 16 17 17 17 17 16 16 17 17 16 16 15 14 13 13 14 14 15 15 14 14 14 13 13 13 13 14 15 15 16 17 17 16 15 15 15 15 16 16 15 15 15 15 15 14 14 16 17 17 17 16 16 16 16 16 15 15 15 16 17 17 17 17 17 17 17 17 17
19 18 17 16 15 14 13 12 11 11 11 11 10 10 12 13 14 15 17 19 19 19 19 19 19 19 19 19 18 17 16 16 16 17 17 17 16 15 16 16 15 14 13 14 14 15 16 17 17 18 17 16 16 16 17 17 17 17 16 16 17 16 14 15 16 17 18 17 17 16 16 17 16 15 15 15 16 17 17 17 17 18 18 18 18
21 20 19 18 17 15 14 12 12 11 10 10 10 10 11 12 12 13 15 17 19 20 21 21 21 22 22 21 21 21 20 19 19 20 20 20 19 17 16 16 16 15 14 14 14 15 16 17 17 18 18 17 17 18 19 18 18 17 17 17 19 19 16 15 16 17 18 18 18 17 16 16 16 16 15 16 16 17 16 16 16 17 18 19 19
21 22 20 18 17 17 15 14 13 12 11 10 10 10 10 11 12 12 13 14 16 18 20 22 22 23 24 24 24 24 23 23 23 23 23 23 22 21 19 18 17 16 15 14 15 16 16 17 17 18 18 19 19 19 19 19 19 18 18 18 19 21 19 17 17 18 18 19 19 18 17 16 16 16 16 17 17 17 17 17 16 16 17 17 18
20 20 20 19 17 16 16 16 15 15 14 13 12 11 11 12 13 13 13 13 14 15 17 20 22 23 24 25 25 25 26 25 25 25 25 24 24 24 23 21 20 19 17 16 16 16 17 17 17 18 18 19 19 19 19 19 18 18 19 20 20 21 21 20 18 18 18 19 19 18 17 16 16 16 17 17 17 17 17 18 18 18 17 16 17
16 17 17 17 16 16 15 15 16 16 15 14 14 13 13 13 14 14 14 14 14 14 15 17 19 21 23 25 25 24 24 24 24 25 25 25 25 24 24 24 23 22 21 20 18 19 18 18 18 18 18 18 19 18 18 18 18 18 19 20 20 20 21 22 21 19 18 19 19 19 18 16 16 16 17 17 18 17 17 18 18 19 18 17 16
14 13 12 12 12 13 13 14 14 15 15 14 14 13 12 13 14 14 14 14 14 13 13 14 16 17 18 19 21 22 23 22 21 21 21 22 23 23 22 22 22 23 23 23 23 22 20 18 18 18 18 18 18 17 16 17 17 18 19 19 19 19 19 20 21 20 19 18 18 19 18 18 17 17 17 18 18 18 17 18 18 18 18 17 15
12 10 9 8 8 9 9 10 12 14 15 13 12 11 11 12 13 14 14 14 14 13 12 12 14 15 14 13 15 18 19 19 19 19 18 19 19 20 20 20 20 20 22 22 22 21 20 18 18 18 17 17 17 16 17 18 18 18 18 18 18 17 17 17 18 19 19 18 18 19 19 19 18 18 18 18 19 19 19 18 18 18 17 16 15
10 9 10 9 8 8 8 10 13 15 14 11 11 11 12 13 13 13 13 14 14 14 13 12 13 14 13 13 13 12 13 16 19 19 17 16 17 18 19 20 20 19 20 20 19 19 19 18 18 17 16 15 16 18 20 19 18 18 17 17 17 17 16 16 16 16 17 17 18 19 20 20 20 19 19 19 19 20 21 20 20 19 18 16 16
9 7 9 11 12 12 13 15 15 15 13 11 12 13 14 14 15 14 14 14 15 15 15 14 14 15 14 14 13 13 16 18 20 21 20 17 16 17 18 19 19 19 19 18 17 16 17 17 17 16 15 15 18 20 20 19 17 16 17 17 17 17 16 15 15 15 15 15 16 17 19 20 21 21 20 20 20 20 21 21 21 20 19 17 17
9 8 7 9 12 14 15 16 16 14 13 14 14 15 15 15 15 15 15 15 15 15 16 15 16 16 15 15 15 15 16 16 17 20 23 22 19 16 17 19 18 18 17 16 16 16 15 15 16 16 16 18 20 20 19 19 18 17 18 19 19 18 16 15 15 16 16 16 16 16 17 18 20 21 21 21 22 22 21 21 21 21 19 18 17
9 7 7 8 10 12 14 15 15 15 14 15 15 15 14 14 15 15 16 15 15 15 15 15 16 16 16 16 15 14 13 13 14 15 19 24 25 21 19 19 20 21 20 18 17 17 17 17 17 19 21 22 21 19 19 20 21 21 21 21 19 18 18 17 16 17 17 18 18 18 18 18 19 20 20 21 22 22 21 21 20 20 20 19 18
10 8 8 8 9 10 11 12 13 13 13 13 13 13 13 13 13 14 15 14 14 14 15 14 14 15 15 15 14 14 14 14 14 14 16 21 26 26 23 21 21 20 19 19 19 19 20 20 20 21 22 22 20 19 21 22 23 23 23 21 19 18 18 18 18 18 18 18 18 19 19 19 19 20 20 20 21 22 22 21 20 20 20 19 18
10 10 9 9 9 9 10 11 11 12 12 12 12 12 12 12 13 13 13 13 14 14 14 13 13 13 14 13 13 12 12 13 13 14 15 17 21 24 23 22 22 20 16 16 17 18 19 20 20 20 21 22 22 22 22 23 23 23 22 20 18 17 17 18 19 18 17 16 16 17 18 18 19 19 21 22 22 23 22 21 20 19 18 19 18
10 11 11 11 11 10 9 9 10 11 12 12 13 13 12 12 13 13 13 14 14 13 13 13 12 12 11 10 10 9 9 11 12 11 13 15 18 21 20 19 22 22 18 16 17 18 19 19 20 20 20 21 22 21 21 21 21 21 20 19 17 17 16 17 17 17 16 15 15 15 16 17 17 18 20 22 23 23 23 23 21 20 18 18 18
10 10 11 11 11 11 10 10 9 9 9 10 10 11 11 12 12 12 12 12 12 11 11 10 9 8 8 8 8 10 10 12 12 11 13 15 17 19 20 19 21 23 21 18 17 17 17 16 16 16 17 17 17 17 18 18 18 17 16 15 15 15 15 15 16 16 16 16 16 16 16 17 17 18 19 20 21 22 23 23 23 21 19 18 17
10 11 11 11 12 13 13 12 11 9 8 8 8 8 9 9 9 9 9 9 9 7 6 7 6 5 5 7 8 9 9 10 10 10 11 13 13 15 17 17 18 21 21 19 17 15 14 12 11 12 12 12 12 13 14 15 15 14 13 13 14 14 14 13 14 15 16 17 18 17 17 17 17 18 18 19 20 20 21 22 23 22 20 18 17
11 11 11 11 12 13 13 13 12 10 8 7 7 8 9 7 7 8 6 6 7 5 3 4 4 3 4 6 5 5 6 6 6 7 8 10 10 10 12 14 16 19 20 18 17 14 12 8 8 9 8 9 9 9 10 11 11 12 13 14 13 13 12 12 14 15 16 17 18 18 17 17 16 17 18 19 19 20 20 20 21 22 21 20 19
11 10 10 10 11 12 12 12 12 12 9 6 6 7 7 6 6 8 7 6 7 5 4 3 3 3 4 5 4 3 4 5 6 6 7 9 10 10 11 12 16 18 18 17 17 14 10 7 6 6 7 8 9 9 9 10 12 13 14 14 14 14 14 14 15 15 16 17 17 18 18 18 18 18 18 18 18 19 19 19 19 20 21 21 22
11 11 10 10 11 11 12 12 11 11 10 7 6 5 4 4 6 7 7 7 6 7 7 6 6 5 4 5 4 4 6 7 8 7 7 8 9 9 9 9 11 15 14 14 15 12 9 6 5 5 7 9 9 9 10 11 13 14 14 14 14 14 14 15 15 15 15 16 17 18 18 19 19 18 18 19 18 18 18 17 18 19 20 21 22
10 11 11 10 11 12 12 11 11 10 9 6 6 5 4 3 4 6 6 6 6 5 5 5 4 4 3 4 5 5 5 6 6 7 8 8 7 7 7 6 8 11 12 12 12 9 7 6 5 5 7 8 8 9 10 11 12 13 13 13 13 14 14 15 15 15 15 15 16 16 17 17 16 17 18 18 18 19 18 17 17 19 20 20 21
10 11 11 11 12 13 13 11 10 9 7 5 5 6 6 5 4 5 5 6 6 5 5 5 4 4 4 5 5 4 4 5 7 7 8 9 7 6 6 4 5 8 10 10 9 7 5 5 5 5 7 8 8 9 10 11 12 12 12 13 13 14 14 14 15 15 15 15 14 14 14 14 14 15 16 17 17 18 18 18 18 19 20 21 23
11 12 12 12 12 12 12 10 9 8 5 4 4 5 5 5 4 4 4 5 5 5 5 5 5 6 6 6 6 5 5 6 7 7 8 9 9 8 7 6 5 5 7 7 8 6 3 4 5 5 6 8 8 9 9 10 11 11 11 12 12 12 13 14 14 14 14 14 13 13 13 13 14 14 15 15 15 16 17 17 18 19 21 23 24
12 13 13 12 12 10 10 8 8 7 5 3 4 5 5 4 3 3 4 5 6 6 6 6 7 7 8 8 9 8 7 7 7 7 7 8 7 6 7 7 7 7 7 6 4 2 3 3 4 6 7 8 9 9 8 9 10 11 10 10 10 10 10 11 13 13 13 13 13 13 13 13 13 14 14 14 14 14 15 16 17 19 21 23 24
13 13 12 11 10 9 8 7 7 7 5 5 5 5 5 4 2 3 4 5 8 9 10 11 10 8 8 9 9 9 9 9 9 8 8 7 6 6 7 6 6 6 7 7 5 3 3 4 7 9 10 11 12 12 10 10 10 10 10 10 10 10 9 9 10 11 12 13 13 13 13 13 13 13 13 14 14 13 13 14 15 17 18 20 22
13 12 12 10 9 8 8 7 7 6 5 4 4 4 4 3 2 3 4 7 10 11 12 13 11 8 8 8 8 8 9 9 9 9 9 8 7 7 6 6 6 6 6 7 8 8 8 9 10 11 12 13 13 13 13 13 12 11 10 11 11 11 10 10 10 10 10 12 13 13 13 13 13 12 12 13 14 14 14 14 15 16 17 18 19
12 11 11 9 8 8 7 7 6 5 4 3 3 3 3 3 3 5 6 8 9 10 11 11 11 9 8 8 8 8 8 8 8 8 9 9 9 8 8 8 8 7 7 7 8 9 9 10 11 12 12 12 13 12 13 13 13 12 12 11 11 11 11 11 12 12 12 11 12 12 13 12 12 10 9 11 13 14 15 16 16 17 17 17 17
11 10 9 8 7 7 7 6 5 5 4 3 3 3 3 4 6 7 8 8 8 9 9 9 9 9 8 8 8 8 8 8 8 8 9 9 9 9 9 9 9 9 9 9 9 9 9 9 9 10 11 12 12 12 11 11 11 11 11 11 10 10 11 12 13 13 14 14 13 13 13 12 11 11 10 10 12 13 14 15 15 16 16 17 17
9 8 8 7 6 6 6 5 5 5 4 4 3 3 4 5 7 7 8 8 8 9 10 10 9 9 8 9 9 9 9 8 9 10 10 10 11 11 10 10 11 11 11 11 10 10 9 9 9 9 9 10 11 11 11 11 10 9 8 8 9 9 9 10 11 11 12 12 12 12 11 11 11 11 10 10 11 12 13 13 14 14 14 15 15
7 7 6 5 4 4 4 4 4 4 4 4 4 5 5 6 7 7 8 8 9 10 10 10 10 10 10 10 10 10 10 11 12 13 13 13 13 12 12 13 13 13 12 12 11 11 10 10 9 9 9 10 10 11 12 13 13 11 8 6 8 10 10 9 9 10 10 11 12 12 12 11 10 10 10 10 10 11 11 12 12 13 13 14 14
6 6 5 4 3 4 4 3 3 3 4 4 5 6 7 7 8 9 9 9 9 10 10 10 10 10 10 10 11 12 13 14 15 15 15 16 15 15 15 16 15 14 14 14 13 13 13 12 12 12 13 13 13 13 13 13 13 15 15 13 13 13 13 13 12 12 11 10 11 12 12 11 10 9 10 10 10 10 10 11 11 11 12 13 13
5 4 4 4 5 5 4 3 3 4 4 4 5 7 9 9 9 9 9 10 10 10 10 10 11 12 12 12 13 14 16 17 17 17 17 18 17 17 18 17 16 16 15 15 15 15 15 15 15 15 15 15 16 17 16 15 15 18 21 22 21 20 19 18 16 14 13 12 13 13 12 11 11 11 11 11 10 10 9 10 10 10 10 11 12
5 4 5 5 6 5 5 4 4 3 3 4 7 10 11 11 11 11 10 10 10 11 11 11 12 13 14 15 15 16 17 18 18 18 18 18 18 18 18 18 17 17 16 16 17 18 18 17 18 18 18 19 21 22 22 23 23 23 23 24 24 24 22 21 19 17 16 16 16 17 16 15 15 14 13 13 12 11 9 9 9 9 10 10 11
5 5 5 5 5 5 5 5 4 3 3 6 10 11 12 12 12 12 11 11 11 11 12 12 13 14 15 15 16 16 17 17 17 17 18 18 18 18 18 17 17 17 17 18 19 20 20 20 21 21 22 23 24 25 25 26 25 25 25 25 26 26 25 24 22 20 21 22 22 22 21 20 19 18 16 15 13 12 11 10 9 9 9 9 10
4 5 5 5 4 5 5 5 4 4 5 8 10 11 11 12 13 12 12 11 10 11 11 12 13 14 14 15 15 15 16 17 17 17 17 17 18 17 17 17 17 18 18 19 20 21 22 22 23 23 24 25 25 24 24 24 24 25 26 26 26 27 28 28 26 24 25 27 27 25 23 22 21 21 19 16 13 13 13 11 10 9 9 8 8
4 4 4 4 4 5 6 5 4 4 6 8 9 10 10 11 11 11 11 11 10 10 11 11 12 13 14 14 14 14 15 16 16 15 16 16 16 16 16 16 17 18 19 21 22 22 23 23 23 24 25 25 24 24 25 24 24 24 23 24 25 26 27 27 26 26 26 27 26 25 23 22 21 21 21 18 16 15 14 13 12 10 9 9 8
3 3 3 3 4 5 6 5 4 5 6 7 8 9 9 10 10 10 10 10 10 10 10 11 11 12 13 13 12 13 13 14 14 14 14 14 14 15 15 16 17 18 20 21 21 22 22 23 23 24 25 24 24 25 25 24 24 23 24 25 24 25 26 26 25 26 26 26 26 25 24 22 21 22 22 21 20 18 15 13 12 12 11 11 10
3 2 2 3 4 5 5 5 5 5 5 6 7 8 9 9 9 9 9 9 9 9 9 10 10 11 12 12 12 12 12 13 14 14 14 14 14 15 15 16 18 19 20 20 21 21 21 21 22 22 23 23 23 23 23 23 23 24 25 25 24 24 25 24 24 25 25 26 27 26 25 24 23 23 23 23 22 19 16 13 13 13 13 13 12
3 2 2 3 3 3 4 5 5 4 4 5 6 7 7 8 8 8 8 8 8 8 8 9 9 10 11 11 11 11 11 12 14 14 14 14 14 15 16 17 18 19 20 20 20 19 19 20 20 20 20 20 20 21 21 21 22 23 23 23 22 23 23 22 22 23 24 24 26 27 26 27 26 24 23 24 22 19 17 17 17 15 14 14 14
4 3 2 2 2 3 3 4 4 3 4 5 5 6 6 6 7 7 7 7 7 8 8 9 9 10 10 11 11 11 11 13 14 14 14 14 14 15 16 17 18 18 19 19 18 18 18 18 19 19 19 19 20 20 20 20 21 21 21 20 20 22 22 22 23 25 25 25 26 27 28 29 29 27 25 25 23 20 19 20 20 19 17 15 15
5 3 2 1 1 2 2 3 3 3 4 5 5 5 6 6 6 6 6 7 7 8 8 9 9 10 10 11 11 11 11 13 14 14 14 13 14 15 16 16 17 18 18 18 17 17 17 17 18 18 18 19 20 20 20 21 21 21 21 21 22 24 24 23 24 25 26 26 28 29 28 28 29 29 28 25 23 21 23 24 23 22 21 18 16
5 4 3 2 1 1 2 2 3 3 4 4 5 5 5 5 5 5 5 6 8 8 8 9 9 9 10 10 10 10 10 12 12 12 13 12 13 14 15 15 16 17 17 17 16 16 16 16 17 17 18 19 20 21 22 23 23 24 25 25 25 26 26 26 26 25 24 26 28 30 29 29 29 30 30 29 25 23 24 26 26 25 24 22 20
5 5 4 4 2 1 2 2 3 3 4 4 4 4 4 4 4 4 5 6 7 8 8 8 9 9 9 9 8 8 9 10 10 10 11 12 12 13 14 14 15 17 17 16 15 15 15 15 16 17 18 19 20 21 23 24 25 26 26 26 26 26 26 26 26 26 25 26 28 29 29 30 30 30 30 31 30 28 26 27 26 26 26 25 23
Wind_Direction
306 312 313 313 312 314 317 322 322 311 309 304 292 298 297 257 241 255 255 250 247 250 257 262 266 270 277 287 293 294 296 306 317 326 337 345 350 354 357 1 1 0 1 2 6 10 14 11 2 351 344 345 346 343 334 318 295 275 267 263 264 272 278 281 285 291 299 304 307 312 317 318 318 320 323 326 326 323 321 321 324 328 330 332 333
299 301 299 300 296 297 298 301 306 301 299 291 277 277 279 267 257 254 252 250 247 249 256 265 270 267 270 279 287 290 291 299 310 319 327 334 338 341 344 347 351 352 352 354 356 1 6 9 7 360 351 348 350 351 347 340 328 312 304 289 272 271 278 282 284 286 291 295 298 300 304 310 312 312 315 319 321 321 320 319 316 317 318 319 322
297 299 297 295 291 290 288 287 288 285 283 278 274 273 270 268 266 262 257 254 251 252 257 264 267 264 265 271 279 282 286 295 304 316 324 328 331 333 335 335 337 337 339 343 345 351 356 360 2 1 356 351 350 348 347 347 339 330 333 330 312 292 280 280 283 286 289 292 295 296 297 299 302 303 306 310 314 315 317 316 314 314 312 312 314
277 284 290 293 293 292 288 283 277 273 271 268 268 270 268 266 266 266 263 261 259 257 259 261 261 258 259 266 273 278 285 291 299 312 320 324 326 326 328 329 329 328 328 330 334 339 344 349 352 354 353 350 348 344 340 341 339 336 339 341 339 332 314 297 289 287 288 292 295 295 294 294 295 298 300 303 305 308 310 312 312 311 310 309 309
276 275 278 282 287 293 292 285 275 269 267 264 263 263 265 265 264 266 266 267 265 263 264 263 261 257 257 265 271 277 284 289 298 308 312 317 321 320 319 321 322 323 323 323 325 329 333 337 341 343 346 347 346 343 337 334 335 336 336 338 341 342 340 331 318 306 297 294 294 295 296 295 294 295 297 299 300 302 303 305 307 308 309 308 307
288 287 283 280 282 287 292 289 283 277 273 269 266 263 263 263 263 263 265 269 270 268 268 267 266 263 264 270 272 276 282 290 299 304 308 311 313 314 312 312 314 317 318 317 318 322 325 326 329 332 335 339 340 340 338 334 332 329 327 329 332 335 338 340 338 332 323 311 301 299 299 298 297 295 295 296 297 299 300 300 302 304 306 306 306
294 293 291 292 291 289 290 292 291 288 284 280 277 273 269 267 265 264 262 264 266 267 269 270 269 268 269 272 273 276 281 288 294 298 301 302 302 305 305 305 308 311 312 311 310 313 315 316 318 321 323 326 328 331 333 331 330 327 324 322 323 326 330 334 337 337 337 333 323 313 306 302 299 297 296 296 296 297 298 298 299 301 302 302 304
296 294 293 296 296 292 288 285 283 282 283 282 282 282 278 273 269 267 265 262 262 263 266 270 271 271 271 271 271 273 278 284 289 290 291 291 293 295 294 297 301 304 306 306 306 306 307 307 307 310 312 315 318 321 323 324 323 321 322 323 323 324 324 327 331 333 333 334 336 332 324 315 307 303 301 300 299 299 299 299 299 300 300 300 300
294 293 292 295 296 294 289 283 278 276 277 279 283 288 285 279 272 269 268 267 266 265 267 269 271 272 272 272 272 271 274 279 282 283 283 284 288 290 290 290 291 294 297 300 303 304 302 301 300 301 303 306 311 316 317 318 317 314 316 318 317 320 322 322 325 328 329 329 332 334 334 331 323 316 312 310 306 303 302 301 300 299 299 299 298
292 292 292 293 295 297 294 289 284 280 279 280 285 290 289 286 280 274 270 270 271 272 272 272 272 273 274 275 275 276 277 277 279 280 280 281 285 289 292 290 285 284 288 292 297 299 300 298 296 296 298 302 307 311 311 309 307 307 309 310 308 309 313 316 319 322 325 327 327 329 331 332 332 329 326 323 317 311 307 303 302 302 301 300 299
291 292 292 291 292 295 295 292 287 284 284 287 291 289 288 289 289 283 273 271 272 274 275 276 277 276 276 277 278 279 279 279 279 279 279 280 282 285 289 290 285 279 280 285 289 292 294 296 295 294 297 302 304 302 300 299 298 297 299 302 300 299 302 307 311 314 318 322 325 326 326 326 328 330 330 329 326 322 318 312 309 308 307 305 303
292 291 291 291 292 291 290 288 285 285 286 290 293 291 288 287 288 288 282 277 276 275 276 276 278 278 278 279 279 280 281 280 280 278 278 279 279 279 280 283 283 279 278 280 283 286 288 291 292 294 297 299 299 300 302 305 305 302 301 300 297 296 300 303 305 308 310 314 318 321 323 323 323 324 326 326 326 326 325 323 320 319 317 313 309
294 292 292 293 294 292 290 288 287 288 288 288 291 294 293 290 289 291 293 291 289 286 282 279 278 279 280 281 280 281 281 281 279 277 276 276 276 275 274 275 277 278 280 280 281 284 286 287 288 292 295 297 301 304 307 309 309 308 307 306 303 301 302 300 298 301 304 305 309 314 318 320 320 320 321 321 322 324 324 324 323 324 325 323 321
298 292 293 296 296 296 294 292 293 293 293 291 290 292 294 295 296 296 297 297 298 299 294 287 282 281 282 283 283 283 281 280 279 276 273 272 272 272 271 271 271 273 275 276 278 281 284 285 286 290 292 296 303 306 306 307 309 309 308 307 305 303 300 297 293 293 296 298 301 304 308 312 314 315 316 316 318 320 322 321 320 321 323 325 328
310 292 290 295 295 296 297 297 297 297 298 295 291 292 293 295 296 295 296 295 296 298 296 293 290 287 285 285 288 289 287 285 283 280 276 273 270 269 269 268 268 267 268 269 272 275 277 278 282 286 290 294 299 302 305 307 307 306 305 305 304 302 299 296 292 289 290 292 293 295 297 300 303 305 308 310 311 313 316 317 317 318 319 323 327
322 294 278 286 289 290 295 296 297 301 303 299 295 295 292 289 287 287 291 293 292 291 289 288 287 286 284 284 288 291 291 293 293 288 282 279 274 268 266 265 263 261 261 264 267 268 268 269 273 279 285 289 292 298 304 305 302 299 298 300 301 300 298 294 291 288 287 287 287 288 288 290 292 295 298 301 303 306 309 311 313 315 317 320 324
335 301 269 267 270 274 282 288 294 300 302 297 292 288 283 281 280 280 282 284 286 284 283 281 278 278 275 274 280 283 286 294 297 293 286 280 274 268 264 263 262 260 260 262 262 262 263 264 268 274 278 282 288 297 302 302 301 296 294 296 297 296 294 292 289 287 285 284 284 285 285 286 287 289 291 293 296 299 302 305 307 309 312 316 319
347 326 281 267 269 274 280 285 291 294 293 290 287 281 276 276 275 274 275 276 280 281 281 278 274 273 271 268 268 271 279 288 292 291 289 283 273 267 264 261 260 259 259 259 258 258 259 263 268 271 272 276 286 294 298 301 301 298 298 300 299 295 290 287 284 282 281 281 283 284 285 286 286 286 286 288 292 296 297 300 302 304 306 310 312
348 340 312 284 277 278 280 283 287 287 286 286 284 280 277 276 275 276 278 279 279 281 283 283 280 278 276 270 263 261 270 281 286 291 294 292 283 272 266 265 263 259 257 257 256 256 256 261 266 267 269 277 285 288 293 298 299 299 301 303 301 294 287 282 280 281 279 278 277 277 280 281 282 282 282 285 289 292 294 296 299 301 303 304 305
351 340 323 302 288 283 282 283 284 284 283 282 281 282 282 281 281 282 284 285 286 285 285 286 286 286 284 280 274 268 268 273 282 291 294 292 290 283 274 272 270 265 261 258 257 259 263 266 268 269 272 276 280 283 289 294 296 297 298 301 299 292 285 281 279 280 280 278 276 275 274 274 274 276 278 281 283 286 289 292 295 299 300 300 299
348 339 326 312 301 294 292 290 288 287 284 282 284 287 287 284 283 283 285 288 290 290 289 289 289 290 290 288 282 277 274 272 275 280 282 285 289 289 288 287 281 274 268 263 261 263 269 272 271 272 273 273 275 280 286 290 293 293 294 296 295 290 287 283 280 280 281 281 280 278 278 275 273 273 274 275 276 278 282 285 288 291 294 295 294
343 341 336 326 317 309 303 298 294 290 287 287 287 287 287 284 282 283 287 290 292 292 292 292 289 286 285 284 282 282 284 281 278 279 280 279 281 287 293 297 294 286 276 268 265 265 269 271 271 272 273 274 275 279 284 287 288 287 289 291 290 288 286 282 279 278 278 280 279 279 277 274 273 273 275 275 273 274 276 278 281 282 286 290 290
344 344 340 335 333 330 322 314 306 299 293 293 295 295 294 292 291 291 291 292 293 293 291 290 290 291 291 288 285 286 283 279 280 285 290 287 281 283 290 293 293 290 283 275 271 270 270 270 272 274 275 276 276 279 282 282 282 283 285 286 283 282 281 278 277 277 279 281 282 283 282 278 275 272 273 275 276 276 275 275 276 276 278 283 287
341 342 342 344 347 350 347 339 331 322 312 306 303 302 300 297 297 296 295 294 294 297 301 299 296 301 304 294 283 281 276 274 277 280 289 294 289 285 287 290 293 294 292 288 282 277 276 277 279 279 279 280 279 279 279 278 279 279 277 275 274 276 276 276 277 280 282 283 282 284 285 285 283 278 276 275 275 276 275 273 272 272 273 276 281
336 339 348 356 357 358 359 356 352 346 343 338 330 327 322 313 306 301 298 298 301 308 319 316 311 311 303 288 285 291 293 293 293 286 288 292 290 290 293 294 295 298 299 298 294 290 289 289 288 284 283 284 282 280 280 280 277 272 267 266 269 274 278 280 280 281 280 278 279 281 282 283 283 281 277 274 273 272 270 269 269 268 269 271 274
332 336 348 356 357 360 2 5 5 2 359 353 349 349 347 342 333 327 321 315 315 312 294 289 299 306 291 285 289 291 287 290 296 294 290 288 288 294 302 300 296 299 304 305 307 306 302 296 289 289 288 284 283 283 282 281 276 272 273 274 277 283 287 287 285 283 281 280 281 282 282 281 280 279 277 274 272 269 266 263 263 263 264 266 269
328 334 344 350 354 358 1 4 8 9 7 360 353 345 347 5 3 352 355 355 350 352 345 332 333 327 314 316 321 300 281 282 289 292 289 289 286 281 288 298 299 302 305 308 313 319 324 321 301 294 290 283 285 284 279 273 269 271 279 283 287 292 293 291 289 289 287 284 284 284 282 281 280 281 282 279 275 271 267 261 260 262 263 265 268
328 332 341 349 353 354 355 357 359 3 6 9 11 3 358 12 5 359 12 22 24 33 38 39 40 32 16 1 347 328 316 310 311 312 305 297 289 276 275 288 298 301 303 307 313 324 343 347 326 316 307 297 296 292 283 277 273 273 280 287 293 297 296 296 296 294 291 288 287 287 285 283 282 281 283 282 276 270 266 261 258 258 260 264 268
334 336 343 350 349 345 346 349 348 351 0 7 7 7 2 348 347 359 19 29 29 40 55 64 58 45 17 352 349 350 350 349 350 346 333 319 305 287 282 285 293 294 294 301 311 330 1 359 340 339 330 319 317 312 301 297 294 289 288 290 297 303 302 300 298 295 292 292 293 293 291 288 285 282 282 283 277 269 265 261 258 257 258 262 264
341 341 341 341 340 339 339 343 346 350 357 353 347 358 3 356 357 3 11 18 15 22 45 55 47 31 11 5 7 4 355 356 356 348 336 330 327 321 314 312 302 288 286 291 302 321 356 3 358 349 337 337 344 339 327 317 310 303 296 296 300 305 304 300 296 294 293 294 296 297 298 296 292 288 285 284 279 271 266 263 262 262 264 266 266
342 339 338 339 339 339 341 347 354 357 358 348 340 350 360 7 14 9 10 14 4 5 28 40 32 20 16 19 13 359 342 334 336 335 329 330 340 351 349 347 342 316 304 297 295 312 2 28 14 345 329 341 349 348 345 336 327 318 309 306 305 303 301 297 296 298 297 297 298 299 303 303 300 297 293 290 286 280 276 273 270 271 271 271 270
343 341 340 342 344 347 353 360 2 5 5 354 349 356 11 26 22 9 19 9 352 354 5 11 10 7 15 24 20 14 9 358 353 349 342 340 345 346 343 352 6 2 351 330 302 342 53 46 347 325 324 333 334 337 344 344 344 341 334 329 322 310 302 298 298 301 303 303 303 302 304 308 308 303 296 292 293 293 291 288 285 284 282 280 277
344 345 344 345 352 358 4 5 1 3 4 3 11 18 28 38 16 8 14 350 347 360 6 6 9 12 18 23 19 14 11 5 2 3 4 3 350 329 323 338 354 356 354 344 328 343 351 323 315 319 324 326 324 325 328 328 335 342 341 338 331 322 317 310 301 302 306 308 309 307 307 309 311 306 297 291 293 296 301 304 304 301 297 294 289
340 343 345 348 355 359 359 356 352 354 358 10 29 26 21 22 353 342 342 339 352 2 360 1 9 16 16 15 13 12 13 9 5 6 9 12 7 356 345 342 345 345 340 334 332 331 326 319 316 317 320 321 322 325 327 328 331 334 332 329 325 323 323 319 314 314 314 311 312 314 313 311 309 306 297 290 289 291 298 306 310 309 306 303 300
340 341 344 349 353 354 354 352 350 356 4 17 26 8 3 356 330 330 341 350 0 1 359 7 21 28 26 22 21 21 19 13 9 10 13 15 16 13 9 5 4 4 358 346 342 340 334 327 322 321 324 327 330 334 335 335 332 328 323 319 318 318 316 317 320 323 324 320 319 321 320 315 313 313 306 296 295 296 296 300 305 308 310 309 308
342 343 347 350 353 354 355 358 5 15 22 29 18 358 356 351 347 353 3 6 6 8 16 28 34 34 32 29 30 31 28 21 18 19 20 20 19 18 16 16 15 15 14 9 3 0 356 346 340 342 345 343 344 345 345 343 339 336 332 325 320 318 316 317 317 320 322 320 320 325 325 322 323 329 325 314 313 312 309 307 307 309 312 313 312
344 348 350 351 352 353 355 6 18 25 29 29 18 5 5 5 5 7 10 14 17 22 30 34 34 34 33 34 37 37 33 28 28 30 28 28 27 23 21 20 21 20 18 15 13 12 10 4 1 0 358 355 352 351 349 347 345 350 352 343 337 334 330 329 326 323 325 325 326 332 334 330 330 335 335 327 323 320 317 315 313 312 312 313 313
350 352 352 354 354 354 2 15 20 23 26 25 21 20 19 16 14 14 16 19 21 24 27 30 33 35 34 37 41 41 38 37 38 38 37 37 36 34 33 33 31 28 23 22 23 21 20 20 19 16 15 12 7 3 2 359 354 357 1 356 352 349 343 340 341 341 343 345 346 349 353 351 347 346 345 337 330 327 321 317 316 315 312 311 310
359 357 2 17 18 16 26 30 25 24 23 17 18 22 23 21 17 15 15 18 20 24 29 33 38 39 40 43 45 44 45 45 44 44 44 43 42 42 42 41 39 36 35 36 37 36 36 38 37 34 32 30 28 25 22 18 11 8 7 4 2 4 360 353 350 352 352 350 349 350 354 359 358 359 360 354 344 336 330 324 322 320 316 312 310
5 13 29 38 35 35 36 31 29 29 19 18 32 38 37 33 27 23 23 25 29 34 36 39 43 44 45 46 48 49 49 50 49 48 48 47 46 46 47 46 44 43 43 44 45 45 45 45 45 42 39 37 35 31 26 24 22 17 14 10 7 9 12 7 360 356 352 349 348 345 342 342 349 356 2 3 355 343 338 335 329 326 325 322 319
20 38 46 43 40 39 36 32 34 36 37 49 56 55 50 42 36 34 35 36 39 41 43 45 47 48 48 47 49 51 51 51 50 49 49 48 46 47 48 47 46 46 47 47 47 46 43 42 43 39 37 35 32 30 27 26 24 20 16 14 10 9 12 13 10 5 359 356 357 356 350 344 346 349 352 356 354 343 338 337 332 331 333 332 330
34 47 47 43 44 44 40 42 49 61 72 70 65 59 53 46 41 41 43 44 45 45 47 49 50 51 51 51 53 54 54 53 50 48 48 46 46 47 47 48 47 46 46 45 45 43 40 38 37 35 35 35 32 30 29 27 24 19 15 13 10 8 8 11 12 8 2 1 4 5 1 355 353 352 351 352 349 337 335 340 342 342 340 336 333
33 45 48 46 52 56 51 50 59 73 77 73 68 60 53 47 43 46 49 47 47 48 49 52 55 56 56 57 57 58 58 56 52 48 46 44 45 45 45 46 45 44 44 44 43 43 39 37 37 35 35 35 32 30 29 26 22 18 15 12 10 9 9 10 10 6 2 2 4 6 5 1 359 359 358 357 349 337 336 340 340 339 336 334 332
40 43 50 58 67 68 60 52 59 68 71 73 69 60 55 52 48 48 52 50 47 49 52 55 58 60 60 60 59 59 59 58 55 51 47 45 44 44 43 43 43 43 43 43 42 41 39 37 36 36 36 34 31 29 27 25 21 17 14 13 11 10 12 12 10 6 3 1 360 2 5 4 3 5 6 4 359 350 344 338 331 329 327 324 323
68 54 59 70 75 76 70 62 59 61 67 72 69 61 57 56 52 50 51 51 48 49 52 57 61 62 61 59 56 56 58 60 60 56 52 51 50 50 49 47 48 49 47 46 44 42 39 37 34 35 35 32 29 28 26 22 18 15 14 14 12 12 13 13 10 6 2 359 357 359 3 4 5 8 8 8 7 4 359 345 332 326 319 312 310
106 90 81 77 75 81 78 69 59 57 62 66 66 63 59 57 55 51 50 50 47 47 52 57 60 64 64 58 53 53 57 61 63 61 57 56 56 56 55 53 53 54 52 50 47 44 42 39 36 36 35 32 29 28 25 20 17 15 14 13 11 13 14 14 10 4 2 1 359 358 0 2 5 8 8 9 12 14 13 2 347 334 320 311 305
139 125 100 83 76 79 78 70 57 49 54 61 61 60 59 58 56 51 48 48 45 45 50 55 58 63 64 59 54 55 61 63 66 64 59 57 56 54 52 52 52 52 50 48 46 43 42 40 38 37 35 33 31 28 25 22 19 17 16 11 10 13 14 13 10 6 4 4 1 360 2 3 4 5 7 8 10 15 16 8 359 351 337 323 314
166 150 117 86 71 69 73 73 64 51 56 65 63 59 56 55 53 50 46 44 41 42 47 51 53 57 61 61 59 61 65 67 68 66 60 55 53 50 47 48 48 47 46 46 43 41 40 39 37 36 34 32 30 27 24 21 19 18 14 8 9 13 11 10 10 8 5 5 4 3 4 4 1 1 4 6 5 6 8 5 0 358 354 345 334
189 179 155 106 72 71 78 80 70 57 58 63 61 58 54 47 46 47 44 41 38 38 41 45 47 51 56 61 64 65 66 66 66 64 59 53 48 47 45 44 45 44 43 43 41 38 37 36 35 33 31 29 26 23 20 18 16 15 10 8 11 13 11 10 11 9 5 2 2 3 4 4 1 357 357 1 3 3 3 2 359 357 357 356 351
208 208 204 189 140 93 101 99 78 57 50 51 53 53 49 42 39 39 36 37 35 31 34 39 40 43 49 56 63 65 64 63 62 60 57 51 45 45 43 40 40 41 41 40 38 36 34 33 31 28 25 23 20 18 16 14 12 11 11 12 14 12 10 10 10 8 6 2 1 1 1 1 1 358 353 353 358 2 1 358 355 355 356 354 355
215 221 220 206 197 167 115 104 86 60 41 37 38 37 38 35 30 28 29 32 31 26 28 34 34 36 42 49 57 61 61 61 60 57 54 49 42 40 38 33 31 34 35 33 32 31 28 25 24 21 18 17 16 14 13 12 11 11 12 13 13 11 11 11 8 7 7 6 3 1 359 358 359 359 356 351 351 353 356 355 354 355 355 352 351
Height
1553 1553 1553 1554 1554 1554 1554 1554 1554 1553 1553 1554 1554 1554 1555 1555 1556 1556 1556 1556 1557 1557 1557 1558 1558 1558 1558 1558 1558 1558 1558 1559 1559 1559 1559 1560 1560 1560 1560 1561 1561 1560 1560 1559 1559 1558 1557 1557 1556 1555 1555 1554 1553 1552 1552 1551 1551 1550 1550 1549 1549 1549 1549 1549 1548 1548 1548 1548 1548 1548 1548 1548 1547 1547 1547 1547 1546 1546 1545 1545 1545 1544 1544 1544 1544
1552 1552 1553 1553 1553 1553 1553 1554 1553 1553 1553 1553 1554 1554 1554 1555 1555 1555 1556 1556 1556 1557 1557 1557 1557 1557 1557 1557 1557 1558 1558 1558 1558 1558 1559 1559 1560 1560 1560 1560 1560 1560 1560 1559 1559 1559 1558 1557 1557 1556 1555 1555 1554 1553 1552 1552 1551 1550 1549 1549 1549 1549 1549 1548 1548 1548 1547 1547 1547 1548 1548 1547 1547 1546 1546 1546 1546 1545 1545 1545 1544 1544 1544 1543 1543
1551 1551 1552 1552 1552 1552 1553 1553 1553 1553 1553 1553 1553 1553 1554 1554 1555 1555 1555 1555 1555 1556 1556 1556 1556 1556 1556 1556 1557 1557 1557 1557 1557 1558 1558 1559 1559 1559 1559 1559 1559 1560 1559 1559 1559 1559 1558 1558 1557 1556 1556 1555 1554 1553 1553 1552 1551 1551 1550 1549 1549 1548 1548 1548 1548 1547 1547 1547 1547 1547 1547 1547 1546 1546 1545 1545 1545 1545 1545 1544 1544 1543 1543 1543 1542
1550 1550 1550 1551 1551 1551 1552 1552 1552 1552 1552 1552 1552 1553 1553 1554 1554 1554 1554 1554 1555 1555 1555 1555 1555 1555 1555 1556 1556 1556 1556 1556 1556 1556 1557 1557 1558 1558 1559 1559 1559 1559 1559 1559 1559 1558 1558 1557 1557 1556 1556 1555 1554 1554 1553 1552 1552 1551 1550 1550 1549 1548 1548 1548 1548 1547 1547 1547 1546 1546 1546 1546 1546 1545 1545 1544 1544 1544 1544 1544 1543 1543 1542 1542 1541
1549 1549 1549 1550 1550 1550 1550 1550 1550 1551 1551 1551 1551 1552 1552 1553 1553 1553 1553 1553 1554 1554 1554 1554 1554 1554 1555 1555 1555 1555 1555 1555 1555 1555 1556 1556 1557 1557 1557 1558 1558 1558 1558 1558 1558 1558 1557 1557 1556 1556 1556 1555 1555 1554 1553 1553 1552 1551 1550 1550 1549 1549 1548 1548 1548 1547 1547 1546 1546 1546 1546 1545 1545 1544 1544 1543 1543 1543 1543 1543 1542 1542 1542 1541 1540
1549 1549 1549 1549 1549 1549 1549 1549 1549 1550 1550 1550 1550 1551 1551 1551 1552 1552 1552 1552 1552 1553 1553 1553 1553 1553 1554 1554 1554 1554 1554 1554 1554 1554 1554 1555 1555 1556 1556 1556 1556 1557 1557 1557 1557 1557 1556 1556 1556 1556 1555 1555 1554 1554 1553 1553 1552 1551 1551 1550 1549 1549 1548 1548 1547 1547 1546 1546 1546 1545 1545 1545 1544 1544 1543 1543 1542 1542 1542 1542 1541 1541 1541 1540 1540
1549 1548 1548 1548 1548 1549 1548 1548 1549 1549 1549 1549 1549 1550 1550 1550 1550 1550 1551 1551 1551 1551 1551 1551 1552 1552 1552 1553 1552 1552 1552 1552 1552 1553 1553 1553 1553 1554 1554 1555 1555 1555 1555 1555 1556 1556 1556 1556 1555 1555 1555 1554 1554 1553 1553 1552 1552 1551 1551 1550 1549 1548 1548 1547 1547 1546 1546 1545 1545 1545 1544 1544 1544 1543 1542 1542 1541 1541 1541 1540 1540 1540 1540 1539 1539
1548 1548 1548 1548 1548 1548 1548 1547 1547 1548 1548 1548 1548 1548 1549 1549 1549 1549 1549 1549 1549 1549 1550 1550 1550 1550 1551 1551 1551 1551 1550 1551 1551 1551 1551 1551 1552 1552 1553 1553 1554 1554 1554 1554 1554 1554 1555 1555 1554 1554 1554 1553 1553 1553 1553 1552 1551 1551 1550 1550 1549 1548 1547 1546 1546 1546 1545 1545 1544 1544 1544 1543 1543 1542 1542 1541 1540 1540 1540 1539 1539 1539 1538 1538 1537
1547 1547 1547 1547 1547 1547 1547 1546 1546 1546 1546 1546 1547 1547 1547 1547 1547 1547 1547 1547 1547 1547 1547 1548 1548 1548 1549 1549 1549 1549 1549 1549 1549 1549 1549 1549 1550 1550 1551 1552 1552 1552 1552 1552 1553 1553 1553 1553 1553 1553 1553 1552 1552 1552 1552 1551 1551 1550 1549 1549 1548 1548 1547 1546 1545 1545 1544 1544 1544 1543 1543 1542 1542 1541 1541 1540 1539 1539 1538 1538 1538 1537 1537 1536 1536
1546 1546 1546 1546 1546 1546 1546 1545 1545 1545 1545 1545 1545 1545 1545 1545 1546 1546 1545 1545 1545 1545 1545 1545 1546 1546 1546 1547 1547 1547 1547 1547 1547 1547 1548 1548 1549 1549 1549 1550 1550 1550 1551 1551 1551 1551 1552 1552 1552 1551 1551 1551 1551 1551 1551 1550 1550 1549 1548 1547 1546 1546 1546 1546 1545 1544 1543 1543 1543 1542 1542 1541 1541 1541 1540 1539 1539 1538 1538 1537 1536 1536 1535 1535 1534
1544 1544 1544 1544 1544 1544 1544 1544 1544 1544 1544 1544 1544 1544 1544 1544 1544 1544 1544 1544 1543 1543 1543 1543 1543 1543 1544 1544 1545 1545 1545 1545 1545 1545 1545 1546 1547 1547 1547 1548 1548 1548 1549 1549 1549 1550 1550 1550 1550 1550 1550 1550 1550 1550 1549 1548 1548 1547 1547 1546 1545 1544 1544 1544 1544 1543 1542 1542 1541 1541 1541 1540 1540 1540 1539 1539 1538 1538 1537 1536 1535 1534 1534 1533 1533
1542 1542 1542 1542 1543 1543 1543 1543 1543 1543 1543 1543 1543 1543 1543 1543 1543 1543 1542 1542 1542 1542 1541 1541 1541 1541 1541 1541 1542 1542 1542 1543 1543 1543 1543 1543 1544 1545 1545 1546 1546 1546 1547 1547 1547 1548 1548 1548 1548 1548 1548 1548 1548 1548 1547 1547 1546 1546 1545 1544 1543 1543 1543 1542 1542 1542 1541 1541 1540 1540 1540 1539 1539 1539 1538 1538 1537 1537 1536 1535 1534 1533 1533 1532 1531
1540 1540 1540 1540 1540 1541 1541 1541 1541 1542 1542 1542 1542 1541 1542 1542 1542 1541 1541 1541 1541 1541 1540 1540 1539 1539 1539 1539 1539 1539 1540 1540 1540 1540 1541 1541 1541 1542 1542 1543 1543 1544 1545 1545 1545 1545 1546 1546 1546 1546 1547 1547 1546 1546 1545 1545 1544 1544 1543 1542 1542 1541 1541 1540 1540 1540 1540 1539 1539 1539 1538 1538 1538 1538 1537 1537 1536 1535 1535 1534 1533 1532 1532 1531 1530
1538 1538 1538 1538 1539 1539 1539 1539 1540 1540 1540 1541 1541 1541 1541 1541 1540 1540 1540 1539 1539 1540 1539 1538 1538 1537 1537 1536 1536 1537 1537 1537 1537 1537 1538 1538 1538 1539 1539 1540 1540 1541 1542 1542 1543 1543 1543 1544 1544 1544 1544 1544 1544 1544 1543 1542 1542 1541 1541 1540 1540 1539 1539 1538 1538 1538 1538 1538 1537 1537 1537 1537 1536 1536 1536 1535 1534 1534 1533 1533 1532 1532 1531 1530 1530
1537 1536 1537 1537 1537 1537 1537 1538 1538 1538 1539 1539 1539 1540 1540 1540 1539 1538 1538 1538 1538 1538 1538 1537 1537 1536 1536 1535 1534 1534 1534 1534 1535 1535 1535 1535 1535 1535 1536 1536 1537 1538 1538 1539 1539 1540 1541 1541 1541 1542 1542 1542 1542 1542 1541 1540 1540 1539 1539 1538 1538 1537 1537 1537 1536 1536 1536 1536 1536 1535 1535 1535 1535 1534 1534 1533 1533 1533 1532 1531 1531 1530 1530 1529 1528
1535 1535 1535 1536 1536 1536 1536 1536 1537 1537 1537 1538 1538 1538 1538 1538 1538 1537 1536 1536 1536 1536 1536 1536 1536 1535 1535 1534 1534 1533 1532 1532 1532 1532 1533 1533 1533 1533 1533 1533 1534 1534 1534 1535 1536 1537 1538 1538 1539 1539 1539 1539 1539 1539 1539 1538 1537 1537 1536 1536 1535 1535 1534 1534 1534 1534 1534 1533 1533 1533 1533 1532 1532 1532 1532 1532 1531 1531 1530 1530 1529 1529 1529 1528 1527
1534 1534 1534 1535 1535 1535 1535 1535 1536 1536 1536 1536 1536 1536 1536 1536 1536 1535 1535 1534 1534 1534 1534 1534 1534 1533 1533 1533 1533 1533 1531 1531 1530 1530 1531 1532 1531 1531 1531 1531 1531 1531 1531 1532 1533 1534 1535 1536 1536 1537 1537 1537 1537 1536 1536 1535 1535 1534 1533 1533 1533 1532 1532 1532 1532 1532 1531 1531 1531 1531 1530 1530 1530 1530 1530 1529 1529 1529 1529 1528 1528 1527 1527 1527 1526
1534 1533 1533 1534 1534 1534 1534 1534 1534 1534 1534 1534 1534 1534 1534 1534 1534 1534 1533 1533 1532 1532 1532 1532 1532 1531 1531 1532 1532 1532 1531 1531 1530 1529 1528 1529 1530 1530 1530 1529 1529 1529 1529 1530 1531 1531 1532 1533 1534 1535 1535 1535 1534 1534 1533 1532 1532 1531 1531 1531 1531 1530 1530 1530 1529 1529 1529 1528 1528 1528 1528 1528 1528 1528 1527 1527 1527 1527 1527 1526 1526 1525 1525 1525 1524
1533 1533 1533 1533 1533 1533 1533 1533 1533 1533 1533 1533 1533 1532 1532 1532 1532 1532 1531 1531 1531 1530 1530 1530 1530 1529 1529 1530 1530 1530 1530 1530 1530 1529 1527 1526 1527 1529 1529 1529 1528 1528 1528 1528 1529 1529 1530 1531 1531 1532 1532 1532 1532 1531 1531 1530 1530 1529 1529 1529 1528 1528 1528 1527 1527 1526 1526 1526 1526 1525 1525 1525 1525 1525 1525 1525 1524 1524 1524 1524 1524 1523 1523 1523 1522
1533 1533 1533 1532 1532 1532 1532 1532 1532 1532 1532 1531 1531 1531 1531 1531 1530 1530 1530 1529 1529 1529 1529 1528 1528 1527 1527 1528 1528 1528 1529 1528 1529 1529 1527 1525 1524 1526 1527 1527 1527 1527 1527 1527 1527 1528 1528 1528 1529 1529 1529 1529 1529 1529 1529 1528 1528 1527 1527 1526 1526 1526 1525 1525 1524 1524 1523 1523 1523 1523 1522 1522 1522 1522 1522 1522 1522 1521 1521 1521 1521 1521 1521 1520 1520
1533 1533 1532 1532 1532 1531 1531 1531 1530 1530 1530 1530 1530 1530 1530 1529 1529 1529 1528 1528 1528 1527 1527 1527 1527 1526 1526 1526 1526 1526 1526 1527 1527 1527 1527 1525 1523 1523 1525 1525 1525 1525 1525 1525 1526 1526 1526 1526 1526 1526 1526 1527 1527 1526 1526 1526 1525 1525 1524 1524 1524 1523 1523 1522 1522 1521 1521 1520 1520 1520 1520 1520 1519 1519 1519 1519 1519 1519 1519 1518 1519 1519 1518 1518 1518
1533 1532 1532 1531 1531 1531 1531 1530 1530 1529 1529 1529 1529 1529 1529 1528 1528 1527 1527 1527 1526 1526 1525 1525 1525 1525 1524 1524 1524 1524 1524 1524 1525 1525 1525 1524 1523 1522 1523 1523 1522 1522 1523 1524 1523 1524 1524 1524 1524 1524 1524 1524 1524 1524 1523 1523 1522 1522 1522 1521 1521 1520 1520 1519 1519 1518 1518 1518 1517 1517 1517 1517 1517 1516 1516 1516 1516 1516 1516 1516 1516 1516 1516 1516 1515
1533 1532 1532 1531 1531 1531 1530 1530 1529 1529 1528 1528 1528 1528 1528 1527 1527 1526 1526 1525 1525 1525 1524 1524 1523 1523 1523 1523 1522 1523 1523 1523 1523 1523 1523 1523 1522 1521 1522 1522 1521 1520 1521 1522 1521 1521 1521 1522 1522 1521 1521 1521 1521 1521 1521 1520 1520 1519 1519 1519 1518 1518 1517 1517 1516 1516 1516 1515 1515 1515 1514 1514 1514 1514 1513 1514 1514 1513 1513 1513 1513 1513 1513 1513 1513
1533 1533 1532 1531 1530 1530 1529 1529 1528 1528 1528 1527 1527 1527 1527 1526 1526 1525 1525 1524 1524 1524 1523 1523 1522 1522 1522 1522 1521 1521 1521 1521 1521 1521 1521 1521 1521 1520 1521 1521 1520 1519 1520 1520 1519 1519 1519 1519 1519 1519 1519 1518 1518 1518 1517 1517 1517 1516 1516 1515 1515 1515 1515 1514 1514 1514 1513 1513 1512 1512 1512 1511 1511 1511 1511 1511 1511 1511 1511 1511 1511 1511 1511 1510 1511
1533 1532 1532 1531 1530 1530 1529 1529 1528 1527 1527 1527 1527 1526 1526 1525 1525 1524 1524 1524 1523 1523 1523 1522 1522 1522 1521 1521 1521 1520 1520 1520 1520 1520 1520 1520 1519 1518 1519 1520 1519 1518 1518 1518 1518 1518 1517 1517 1517 1516 1516 1516 1516 1515 1515 1515 1514 1514 1513 1513 1513 1512 1512 1512 1511 1511 1510 1510 1510 1509 1509 1509 1508 1508 1508 1508 1507 1507 1507 1507 1508 1508 1508 1508 1508
1533 1532 1531 1531 1531 1530 1529 1529 1528 1527 1527 1527 1526 1526 1526 1525 1524 1524 1523 1523 1523 1522 1522 1522 1522 1521 1521 1520 1520 1520 1520 1519 1519 1519 1519 1518 1518 1517 1517 1518 1518 1517 1517 1517 1517 1516 1515 1515 1515 1514 1514 1514 1513 1513 1513 1513 1512 1512 1511 1511 1511 1510 1510 1510 1509 1509 1508 1508 1507 1507 1507 1506 1506 1505 1505 1504 1504 1503 1503 1504 1504 1505 1505 1505 1505
1533 1532 1532 1531 1531 1530 1530 1529 1528 1528 1527 1527 1527 1526 1526 1525 1524 1524 1523 1523 1522 1522 1522 1521 1521 1521 1520 1519 1519 1519 1519 1519 1519 1519 1518 1518 1517 1516 1516 1516 1516 1516 1516 1516 1515 1515 1514 1513 1512 1512 1512 1511 1511 1511 1511 1511 1510 1510 1510 1509 1509 1509 1508 1508 1507 1507 1506 1506 1505 1505 1504 1504 1503 1503 1502 1501 1501 1500 1500 1500 1501 1502 1502 1502 1502
1533 1532 1532 1531 1531 1530 1530 1529 1529 1528 1527 1527 1527 1527 1526 1525 1524 1524 1523 1523 1523 1522 1522 1521 1521 1521 1520 1519 1519 1519 1519 1518 1518 1518 1518 1518 1517 1516 1515 1514 1515 1516 1515 1515 1515 1514 1512 1511 1511 1510 1510 1510 1510 1510 1510 1509 1508 1508 1508 1508 1508 1507 1506 1506 1506 1505 1505 1504 1503 1502 1501 1501 1501 1500 1499 1499 1498 1498 1498 1498 1498 1498 1499 1499 1499
1533 1532 1532 1531 1531 1530 1530 1529 1529 1528 1527 1527 1527 1527 1526 1525 1525 1524 1524 1524 1523 1523 1522 1522 1521 1521 1520 1520 1519 1519 1518 1518 1518 1518 1518 1517 1517 1516 1514 1513 1514 1515 1515 1515 1514 1513 1512 1510 1510 1509 1509 1509 1509 1509 1508 1508 1507 1508 1507 1507 1506 1506 1505 1504 1504 1503 1503 1502 1501 1500 1499 1499 1498 1498 1497 1497 1496 1496 1496 1495 1495 1495 1495 1495 1495
1533 1532 1532 1531 1531 1530 1530 1529 1529 1528 1528 1527 1527 1526 1526 1525 1524 1524 1524 1524 1524 1523 1522 1522 1521 1521 1520 1519 1519 1519 1518 1518 1517 1517 1517 1516 1516 1515 1514 1512 1511 1513 1515 1515 1514 1513 1511 1510 1509 1509 1508 1508 1509 1508 1508 1507 1507 1507 1506 1505 1505 1505 1504 1503 1502 1501 1501 1500 1499 1499 1498 1497 1496 1496 1496 1495 1495 1494 1494 1493 1493 1493 1492 1492 1492
1533 1533 1532 1532 1531 1530 1529 1529 1528 1528 1528 1527 1527 1526 1526 1525 1525 1524 1524 1524 1524 1523 1522 1522 1521 1521 1520 1520 1519 1519 1518 1518 1517 1517 1516 1516 1516 1515 1514 1512 1510 1511 1514 1514 1513 1512 1511 1510 1509 1508 1508 1508 1508 1508 1507 1507 1506 1506 1505 1504 1504 1503 1503 1502 1501 1500 1499 1499 1498 1497 1497 1496 1495 1495 1494 1494 1493 1493 1492 1491 1491 1490 1490 1489 1488
1534 1533 1532 1532 1531 1530 1529 1529 1529 1528 1528 1527 1527 1526 1526 1526 1525 1525 1525 1525 1524 1523 1522 1522 1521 1521 1520 1520 1519 1518 1518 1517 1517 1516 1516 1515 1515 1515 1514 1513 1511 1510 1511 1512 1512 1511 1510 1509 1509 1508 1508 1508 1508 1507 1507 1507 1506 1505 1504 1503 1502 1502 1501 1501 1500 1499 1498 1497 1497 1496 1495 1494 1494 1493 1493 1492 1492 1491 1490 1490 1489 1488 1487 1486 1485
1534 1533 1532 1531 1531 1530 1530 1529 1529 1528 1528 1528 1527 1527 1527 1527 1527 1526 1526 1525 1524 1523 1523 1523 1522 1521 1521 1520 1519 1519 1518 1517 1516 1516 1515 1514 1515 1514 1514 1513 1511 1510 1509 1510 1511 1511 1509 1509 1509 1509 1508 1508 1507 1507 1507 1506 1506 1505 1504 1503 1502 1501 1500 1500 1499 1498 1497 1496 1495 1495 1494 1493 1493 1492 1492 1491 1491 1490 1489 1488 1487 1486 1485 1484 1483
1534 1533 1532 1532 1531 1531 1530 1530 1529 1529 1528 1528 1528 1528 1528 1528 1527 1527 1526 1525 1525 1524 1523 1523 1522 1521 1521 1520 1520 1519 1518 1517 1516 1515 1515 1514 1514 1514 1513 1512 1511 1510 1509 1509 1510 1510 1510 1510 1510 1509 1508 1507 1506 1506 1505 1505 1504 1504 1503 1502 1501 1500 1499 1498 1498 1497 1496 1495 1494 1494 1493 1492 1492 1491 1490 1489 1489 1488 1488 1487 1486 1485 1484 1482 1481
1534 1533 1532 1532 1532 1531 1531 1530 1530 1529 1529 1529 1529 1529 1528 1528 1528 1527 1526 1526 1525 1525 1524 1523 1522 1522 1521 1520 1520 1519 1518 1518 1517 1516 1515 1514 1514 1514 1513 1512 1511 1510 1509 1509 1509 1510 1510 1510 1509 1509 1508 1507 1506 1505 1504 1504 1503 1502 1502 1501 1500 1499 1498 1497 1497 1496 1495 1494 1493 1493 1492 1491 1490 1490 1489 1488 1487 1487 1486 1486 1485 1484 1483 1481 1480
1534 1533 1533 1532 1532 1532 1531 1531 1530 1530 1530 1530 1529 1529 1529 1528 1528 1527 1527 1526 1526 1525 1524 1524 1523 1522 1522 1521 1520 1519 1519 1518 1517 1517 1516 1515 1514 1514 1513 1512 1511 1510 1510 1509 1509 1510 1510 1510 1509 1508 1507 1506 1505 1504 1504 1503 1503 1502 1501 1500 1499 1498 1497 1496 1495 1495 1494 1493 1492 1492 1491 1490 1489 1489 1488 1487 1487 1486 1485 1484 1483 1483 1482 1481 1479
1534 1534 1533 1533 1532 1532 1532 1531 1531 1531 1530 1530 1530 1529 1529 1529 1528 1528 1527 1527 1526 1526 1525 1524 1524 1523 1522 1522 1521 1520 1519 1519 1518 1517 1516 1516 1515 1514 1514 1513 1512 1511 1510 1510 1510 1510 1510 1510 1509 1508 1507 1506 1505 1504 1503 1502 1502 1501 1500 1499 1498 1497 1496 1495 1495 1494 1494 1492 1491 1491 1490 1489 1488 1488 1488 1487 1486 1485 1484 1482 1481 1481 1480 1479 1478
1535 1534 1534 1533 1533 1533 1533 1532 1532 1531 1531 1531 1530 1530 1530 1529 1529 1528 1528 1527 1527 1526 1526 1525 1524 1524 1523 1522 1521 1521 1520 1519 1518 1518 1517 1516 1516 1515 1514 1513 1512 1512 1511 1511 1511 1511 1511 1510 1509 1508 1507 1506 1505 1503 1502 1500 1499 1499 1499 1498 1497 1496 1495 1495 1494 1494 1493 1492 1491 1490 1490 1489 1488 1487 1487 1485 1484 1483 1482 1481 1480 1479 1478 1477 1477
1535 1534 1534 1534 1534 1533 1533 1533 1532 1532 1531 1531 1531 1531 1530 1530 1529 1529 1528 1528 1527 1527 1526 1526 1525 1524 1524 1523 1522 1521 1520 1520 1519 1519 1518 1517 1517 1516 1515 1514 1514 1513 1512 1512 1511 1511 1511 1510 1510 1508 1507 1506 1505 1503 1502 1501 1499 1497 1496 1496 1495 1494 1493 1493 1493 1493 1492 1492 1491 1490 1489 1488 1487 1486 1486 1484 1483 1482 1481 1480 1478 1477 1476 1476 1475
1535 1535 1534 1534 1534 1534 1534 1533 1533 1532 1532 1532 1532 1531 1531 1530 1530 1529 1528 1528 1528 1527 1527 1526 1526 1525 1524 1523 1522 1522 1521 1521 1520 1520 1519 1519 1518 1517 1516 1516 1515 1514 1513 1513 1513 1512 1512 1511 1510 1509 1508 1506 1505 1503 1502 1500 1498 1496 1495 1494 1494 1493 1493 1492 1492 1491 1491 1490 1490 1489 1488 1487 1487 1486 1485 1484 1482 1480 1480 1479 1477 1476 1475 1474 1474
1535 1535 1535 1535 1534 1534 1534 1534 1533 1533 1533 1532 1532 1532 1532 1531 1530 1529 1529 1528 1528 1528 1527 1527 1526 1525 1525 1524 1523 1523 1522 1522 1522 1521 1521 1520 1519 1519 1518 1517 1517 1516 1515 1514 1514 1513 1512 1511 1510 1509 1508 1506 1504 1503 1501 1499 1498 1498 1497 1496 1494 1493 1493 1493 1492 1490 1489 1489 1488 1487 1486 1485 1485 1484 1483 1482 1480 1479 1478 1477 1476 1475 1474 1473 1473
1536 1535 1535 1535 1535 1535 1534 1534 1534 1534 1533 1533 1532 1533 1532 1532 1531 1530 1530 1529 1529 1528 1528 1528 1527 1526 1526 1525 1525 1524 1524 1524 1523 1523 1522 1522 1521 1520 1520 1519 1518 1518 1517 1516 1515 1514 1513 1512 1511 1509 1508 1506 1505 1504 1502 1501 1501 1500 1498 1496 1495 1493 1493 1492 1491 1489 1488 1487 1486 1486 1485 1484 1483 1483 1482 1481 1479 1477 1477 1476 1475 1474 1474 1473 1472
1536 1536 1536 1536 1536 1535 1535 1535 1535 1534 1534 1533 1533 1533 1533 1532 1532 1531 1531 1530 1530 1530 1529 1529 1528 1528 1527 1527 1527 1526 1526 1525 1525 1524 1524 1523 1522 1522 1521 1520 1520 1519 1518 1517 1516 1515 1514 1513 1512 1510 1508 1507 1506 1506 1505 1503 1502 1500 1498 1497 1495 1493 1492 1491 1490 1488 1487 1486 1485 1485 1485 1484 1483 1481 1480 1479 1477 1476 1476 1476 1475 1474 1473 1472 1471
1536 1536 1537 1537 1536 1536 1536 1535 1535 1535 1534 1534 1533 1534 1534 1533 1533 1532 1532 1532 1531 1531 1531 1530 1530 1529 1529 1529 1528 1528 1527 1527 1527 1526 1525 1525 1524 1523 1523 1522 1521 1520 1519 1518 1517 1516 1515 1514 1513 1511 1509 1508 1508 1506 1505 1504 1503 1501 1500 1498 1496 1494 1493 1492 1490 1489 1488 1487 1486 1485 1485 1484 1483 1481 1479 1478 1477 1475 1475 1475 1474 1473 1472 1471 1470
1537 1537 1537 1537 1537 1536 1536 1536 1536 1535 1535 1534 1534 1534 1534 1534 1534 1533 1533 1533 1533 1532 1532 1532 1531 1531 1530 1530 1530 1529 1529 1528 1528 1528 1527 1526 1526 1525 1524 1523 1522 1521 1520 1519 1518 1517 1516 1515 1513 1512 1510 1509 1508 1507 1506 1505 1504 1502 1500 1499 1497 1496 1494 1493 1491 1490 1489 1487 1486 1485 1484 1483 1482 1481 1479 1478 1476 1475 1474 1473 1472 1471 1471 1470 1469
1538 1537 1537 1537 1537 1537 1537 1537 1536 1536 1536 1535 1535 1535 1535 1535 1534 1534 1534 1534 1534 1533 1533 1533 1532 1532 1531 1531 1531 1530 1530 1529 1529 1529 1528 1528 1527 1526 1526 1525 1523 1522 1521 1521 1520 1519 1518 1516 1515 1513 1512 1511 1510 1508 1507 1506 1504 1502 1500 1499 1498 1497 1495 1494 1492 1491 1489 1487 1486 1484 1484 1482 1481 1480 1479 1477 1476 1475 1473 1472 1471 1470 1469 1468 1467
1538 1538 1538 1537 1537 1537 1537 1537 1537 1536 1536 1536 1536 1536 1535 1535 1535 1535 1535 1535 1535 1534 1534 1534 1533 1533 1533 1532 1532 1531 1531 1530 1530 1530 1529 1529 1528 1528 1527 1526 1525 1524 1523 1522 1521 1520 1519 1518 1516 1515 1514 1513 1512 1510 1509 1507 1505 1504 1502 1501 1500 1498 1497 1496 1494 1492 1490 1488 1486 1484 1483 1481 1480 1480 1478 1477 1476 1475 1473 1472 1471 1469 1468 1466 1465
1538 1538 1538 1538 1537 1537 1537 1537 1537 1537 1537 1537 1537 1536 1536 1536 1536 1536 1535 1535 1535 1535 1535 1534 1534 1534 1534 1533 1533 1532 1532 1531 1531 1530 1530 1530 1529 1528 1527 1527 1526 1525 1524 1523 1522 1521 1520 1518 1517 1516 1515 1514 1512 1511 1510 1508 1507 1505 1504 1503 1501 1499 1498 1497 1494 1492 1490 1488 1487 1484 1482 1481 1479 1478 1477 1476 1475 1474 1473 1471 1470 1468 1467 1465 1464
1538 1538 1538 1538 1538 1538 1538 1538 1538 1538 1537 1537 1537 1537 1537 1536 1536 1536 1536 1536 1536 1535 1535 1535 1535 1534 1534 1534 1534 1533 1533 1532 1532 1531 1531 1531 1530 1529 1528 1528 1527 1525 1524 1524 1523 1522 1521 1520 1518 1517 1516 1514 1513 1512 1510 1509 1507 1506 1504 1502 1500 1498 1497 1495 1493 1492 1489 1488 1486 1484 1483 1481 1479 1477 1476 1475 1475 1473 1471 1470 1469 1467 1466 1465 1463
1538 1538 1539 1538 1538 1538 1538 1538 1538 1538 1538 1537 1537 1537 1537 1537 1537 1536 1536 1536 1535 1535 1535 1535 1535 1535 1534 1534 1534 1534 1533 1533 1533 1533 1532 1532 1531 1530 1530 1529 1528 1527 1526 1525 1524 1523 1522 1521 1519 1518 1517 1515 1514 1512 1510 1508 1506 1504 1502 1500 1498 1497 1496 1494 1493 1492 1490 1488 1486 1484 1482 1481 1479 1477 1474 1473 1472 1472 1471 1469 1468 1466 1465 1463 1462
1538 1538 1538 1539 1539 1539 1538 1538 1538 1538 1538 1538 1537 1537 1537 1537 1537 1536 1536 1536 1535 1535 1535 1535 1535 1535 1535 1535 1535 1534 1534 1534 1534 1534 1533 1533 1532 1531 1531 1530 1529 1527 1527 1526 1525 1524 1523 1522 1521 1519 1517 1516 1514 1512 1510 1508 1505 1503 1501 1500 1499 1497 1495 1494 1492 1491 1490 1488 1486 1484 1482 1480 1479 1477 1474 1470 1468 1469 1469 1468 1467 1465 1464 1462 1461